Location: ???? ?????
(30.0052°N, 31.2891°E)
Time: 20:11:09
(UTC+00:00)

Iridium 16 - Pass Details

Date: 05 February 2023
Orbit: 766 x 768 km, 86.4° (Epoch: 20 March)

Event Time Altitude Azimuth Distance (km) Brightness Sun altitude
Rises 01:38:11 0° 140° (SE) 3,221 9.1 -40.3°
Reaches altitude 10° 01:41:22 10° 119° (ESE) 2,300 8.5 -39.6°
Maximum altitude 01:44:26 16° 82° (E) 1,913 8.1 -38.9°
Drops below altitude 10° 01:47:30 10° 45° (NE) 2,308 8.4 -38.3°
Sets 01:50:41 0° 25° (NNE) 3,239 9.0 -37.6°
